JAL523 RJTT-RJCC

Flight info

Callsign JAL523
Flight time 1h 11m
Altitude 41000
Route BRUCE AGRIS Y11 SAMBO Y119 OHMAR Y13 SIRAO Y139 NAVER
Aircraft A359/H-SDE2E3GHIJ3J4J5LM1ORWXY/LB1D1

Departure

Time 2026-02-20 08:57
Airport Tokyo Haneda International Airport (RJTT)

Arrival

Time 2026-02-20 10:08
Airport New Chitose Airport (RJCC)
Time Latitude Longitude Altitude Speed Heading
2026-02-20 08:12 35.54947 139.78199 31 ft 0 kts 61°
2026-02-20 08:44 35.54946 139.78197 31 ft 1 kts 61°
2026-02-20 08:45 35.54938 139.78178 31 ft 3 kts 66°
2026-02-20 08:45 35.54931 139.78155 31 ft 3 kts 73°
2026-02-20 08:45 35.54926 139.78131 29 ft 3 kts 81°
2026-02-20 08:45 35.54924 139.78107 31 ft 3 kts 91°
2026-02-20 08:46 35.54926 139.78082 29 ft 3 kts 104°
2026-02-20 08:46 35.54932 139.78059 27 ft 3 kts 123°
2026-02-20 08:46 35.54944 139.78042 27 ft 2 kts 152°
2026-02-20 08:46 35.54948 139.78040 30 ft 0 kts 156°
2026-02-20 08:49 35.54941 139.78043 27 ft 4 kts 156°
2026-02-20 08:49 35.54900 139.78064 31 ft 8 kts 156°
2026-02-20 08:49 35.54839 139.78109 31 ft 12 kts 148°
2026-02-20 08:49 35.54753 139.78172 31 ft 16 kts 150°
2026-02-20 08:50 35.54645 139.78248 31 ft 20 kts 149°
2026-02-20 08:50 35.54517 139.78340 31 ft 23 kts 150°
2026-02-20 08:50 35.54373 139.78442 31 ft 26 kts 149°
2026-02-20 08:50 35.54226 139.78575 31 ft 26 kts 111°
2026-02-20 08:51 35.54292 139.78771 31 ft 26 kts 59°
2026-02-20 08:51 35.54389 139.78974 31 ft 29 kts 59°
2026-02-20 08:51 35.54492 139.79191 31 ft 31 kts 60°
2026-02-20 08:51 35.54545 139.79427 30 ft 27 kts 129°
2026-02-20 08:52 35.54382 139.79548 30 ft 28 kts 150°
2026-02-20 08:52 35.54206 139.79673 30 ft 30 kts 149°
2026-02-20 08:52 35.54019 139.79804 29 ft 32 kts 150°
2026-02-20 08:52 35.53826 139.79942 30 ft 33 kts 149°
2026-02-20 08:53 35.53622 139.80086 30 ft 35 kts 149°
2026-02-20 08:53 35.53411 139.80239 30 ft 36 kts 149°
2026-02-20 08:53 35.53266 139.80341 30 ft 37 kts 150°
2026-02-20 08:53 35.53040 139.80500 30 ft 38 kts 150°
2026-02-20 08:54 35.52821 139.80511 30 ft 33 kts 221°
2026-02-20 08:54 35.52648 139.80318 28 ft 33 kts 222°
2026-02-20 08:54 35.52620 139.80288 30 ft 0 kts 222°
2026-02-20 08:55 35.52620 139.80287 30 ft 1 kts 222°
2026-02-20 08:55 35.52582 139.80245 29 ft 8 kts 221°
2026-02-20 08:55 35.52526 139.80235 30 ft 9 kts 162°
2026-02-20 08:55 35.52469 139.80294 30 ft 12 kts 135°
2026-02-20 08:56 35.52442 139.80378 28 ft 10 kts 51°
2026-02-20 08:56 35.52508 139.80459 29 ft 24 kts 41°
2026-02-20 08:56 35.52846 139.80838 30 ft 110 kts 43°
2026-02-20 08:56 35.53602 139.81700 148 ft 176 kts 43°
2026-02-20 08:57 35.54542 139.82724 1054 ft 178 kts 41°
2026-02-20 08:57 35.55218 139.83900 2147 ft 163 kts 67°
2026-02-20 08:57 35.55676 139.85183 2663 ft 169 kts 66°
2026-02-20 08:57 35.56256 139.86541 2896 ft 188 kts 62°
2026-02-20 08:58 35.56956 139.88019 3170 ft 210 kts 60°
2026-02-20 08:58 35.57751 139.89647 3415 ft 233 kts 60°
2026-02-20 08:58 35.58615 139.91402 3698 ft 250 kts 60°
2026-02-20 08:58 35.59529 139.93257 4173 ft 257 kts 60°
2026-02-20 08:59 35.60609 139.95045 4853 ft 265 kts 44°
2026-02-20 08:59 35.62244 139.96088 5852 ft 270 kts 12°
2026-02-20 08:59 35.64113 139.96342 6956 ft 270 kts
2026-02-20 08:59 35.65994 139.96438 8013 ft 273 kts
2026-02-20 09:00 35.67912 139.96523 9066 ft 277 kts
2026-02-20 09:00 35.69836 139.96626 10096 ft 282 kts
2026-02-20 09:00 35.71870 139.96743 10756 ft 302 kts
2026-02-20 09:00 35.74035 139.96590 11274 ft 320 kts 349°
2026-02-20 09:01 35.76288 139.96366 12114 ft 329 kts 355°
2026-02-20 09:01 35.78600 139.96292 13103 ft 335 kts 357°
2026-02-20 09:01 35.80957 139.96266 14065 ft 340 kts 358°
2026-02-20 09:01 35.83313 139.96241 14934 ft 345 kts 357°
2026-02-20 09:02 35.85734 139.96197 15876 ft 349 kts 356°
2026-02-20 09:02 35.88183 139.96132 16796 ft 353 kts 355°
2026-02-20 09:02 35.90633 139.96049 17700 ft 357 kts 354°
2026-02-20 09:02 35.93142 139.95953 18569 ft 362 kts 354°
2026-02-20 09:03 35.95675 139.95850 19329 ft 367 kts 354°
2026-02-20 09:03 35.98260 139.95744 20084 ft 373 kts 354°
2026-02-20 09:03 36.00876 139.95638 20866 ft 378 kts 354°
2026-02-20 09:03 36.03493 139.95533 21635 ft 383 kts 354°
2026-02-20 09:04 36.06176 139.95426 22399 ft 387 kts 354°
2026-02-20 09:04 36.08886 139.95319 23155 ft 392 kts 354°
2026-02-20 09:04 36.11641 139.95210 23856 ft 397 kts 354°
2026-02-20 09:04 36.14429 139.95100 24468 ft 401 kts 354°
2026-02-20 09:05 36.17234 139.94989 25088 ft 406 kts 353°
2026-02-20 09:05 36.20047 139.94878 25656 ft 411 kts 353°
2026-02-20 09:05 36.22938 139.94774 26238 ft 417 kts 353°
2026-02-20 09:05 36.25853 139.94687 26826 ft 422 kts 353°
2026-02-20 09:06 36.28805 139.94606 27406 ft 427 kts 353°
2026-02-20 09:06 36.31803 139.94525 28011 ft 432 kts 353°
2026-02-20 09:06 36.34830 139.94443 28603 ft 436 kts 353°
2026-02-20 09:06 36.37851 139.94360 29152 ft 441 kts 352°
2026-02-20 09:07 36.40939 139.94273 29694 ft 446 kts 352°
2026-02-20 09:07 36.44058 139.94208 30216 ft 452 kts 353°
2026-02-20 09:07 36.47225 139.94279 30650 ft 457 kts 355°
2026-02-20 09:07 36.50423 139.94438 31132 ft 461 kts 356°
2026-02-20 09:08 36.53605 139.94625 31643 ft 463 kts 356°
2026-02-20 09:08 36.56832 139.94814 32101 ft 466 kts 356°
2026-02-20 09:08 36.60083 139.94989 32514 ft 469 kts 355°
2026-02-20 09:08 36.63358 139.95150 32919 ft 472 kts 355°
2026-02-20 09:09 36.66664 139.95301 33322 ft 476 kts 355°
2026-02-20 09:09 36.69998 139.95445 33752 ft 479 kts 355°
2026-02-20 09:09 36.73352 139.95588 34142 ft 482 kts 355°
2026-02-20 09:09 36.76679 139.95729 34441 ft 485 kts 355°
2026-02-20 09:10 36.80067 139.95874 34765 ft 487 kts 355°
2026-02-20 09:10 36.83460 139.96021 35206 ft 486 kts 355°
2026-02-20 09:10 36.86848 139.96272 35628 ft 490 kts 359°
2026-02-20 09:10 36.90245 139.96933 36055 ft 494 kts
2026-02-20 09:11 36.93626 139.97719 36449 ft 495 kts
2026-02-20 09:11 36.96966 139.98555 36812 ft 496 kts
2026-02-20 09:11 37.00353 139.99433 37169 ft 496 kts
2026-02-20 09:11 37.03735 140.00320 37523 ft 497 kts
2026-02-20 09:12 37.07124 140.01216 37895 ft 497 kts
2026-02-20 09:12 37.10512 140.02104 38261 ft 497 kts
2026-02-20 09:12 37.13857 140.02974 38611 ft 496 kts
2026-02-20 09:12 37.17250 140.03852 38899 ft 497 kts
2026-02-20 09:13 37.20641 140.04729 39159 ft 496 kts
2026-02-20 09:13 37.24036 140.05607 39422 ft 496 kts
2026-02-20 09:13 37.27418 140.06483 39688 ft 496 kts
2026-02-20 09:13 37.30803 140.07360 39982 ft 495 kts
2026-02-20 09:14 37.34178 140.08236 40258 ft 494 kts
2026-02-20 09:14 37.37504 140.09101 40501 ft 494 kts
2026-02-20 09:14 37.40872 140.09977 40761 ft 493 kts
2026-02-20 09:14 37.44251 140.10856 40999 ft 493 kts
2026-02-20 09:15 37.47629 140.11734 41117 ft 496 kts
2026-02-20 09:15 37.50996 140.12608 41137 ft 501 kts
2026-02-20 09:15 37.57915 140.14404 41135 ft 510 kts
2026-02-20 09:16 37.64868 140.16236 41129 ft 509 kts
2026-02-20 09:16 37.71763 140.18048 41130 ft 509 kts
2026-02-20 09:17 37.78700 140.19863 41134 ft 509 kts
2026-02-20 09:17 37.85650 140.21687 41133 ft 509 kts
2026-02-20 09:18 37.92595 140.23515 41147 ft 509 kts
2026-02-20 09:18 37.99464 140.25326 41136 ft 507 kts
2026-02-20 09:19 38.06394 140.27159 41132 ft 507 kts
2026-02-20 09:19 38.13322 140.28994 41128 ft 507 kts
2026-02-20 09:20 38.20203 140.30821 41116 ft 506 kts
2026-02-20 09:20 38.27117 140.32661 41109 ft 506 kts
2026-02-20 09:21 38.33969 140.34486 41102 ft 506 kts
2026-02-20 09:21 38.40859 140.36341 41102 ft 506 kts
2026-02-20 09:22 38.47727 140.38499 41103 ft 507 kts
2026-02-20 09:22 38.54568 140.40776 41117 ft 507 kts
2026-02-20 09:23 38.61369 140.43010 41120 ft 507 kts
2026-02-20 09:23 38.68214 140.45228 41142 ft 507 kts
2026-02-20 09:24 38.75062 140.47439 41143 ft 507 kts
2026-02-20 09:24 38.81899 140.49651 41150 ft 506 kts
2026-02-20 09:25 38.88691 140.51854 41145 ft 506 kts
2026-02-20 09:25 38.95523 140.54074 41157 ft 506 kts
2026-02-20 09:26 39.02361 140.56300 41156 ft 506 kts
2026-02-20 09:26 39.09185 140.58539 41148 ft 505 kts
2026-02-20 09:27 39.15956 140.60756 41153 ft 505 kts
2026-02-20 09:27 39.22772 140.62994 41152 ft 505 kts
2026-02-20 09:28 39.29563 140.65230 41154 ft 504 kts
2026-02-20 09:28 39.36359 140.67474 41156 ft 504 kts
2026-02-20 09:29 39.43167 140.69725 41151 ft 504 kts
2026-02-20 09:29 39.49924 140.71964 41153 ft 503 kts
2026-02-20 09:30 39.56713 140.74215 41157 ft 503 kts
2026-02-20 09:30 39.63493 140.76468 41158 ft 503 kts
2026-02-20 09:31 39.70282 140.78732 41169 ft 504 kts
2026-02-20 09:31 39.77074 140.81002 41160 ft 502 kts
2026-02-20 09:32 39.83811 140.83257 41150 ft 502 kts
2026-02-20 09:32 39.90599 140.85536 41151 ft 502 kts
2026-02-20 09:33 39.97328 140.87795 41149 ft 502 kts
2026-02-20 09:33 40.04101 140.90074 41143 ft 502 kts
2026-02-20 09:34 40.10873 140.92358 41142 ft 502 kts
2026-02-20 09:34 40.17656 140.94529 41150 ft 498 kts
2026-02-20 09:35 40.24454 140.95252 41134 ft 490 kts 356°
2026-02-20 09:35 40.31272 140.95518 41130 ft 489 kts 355°
2026-02-20 09:36 40.38094 140.95701 41136 ft 489 kts 355°
2026-02-20 09:36 40.44862 140.95896 41124 ft 489 kts 355°
2026-02-20 09:37 40.51676 140.96113 41099 ft 489 kts 355°
2026-02-20 09:37 40.58504 140.96340 41089 ft 489 kts 355°
2026-02-20 09:38 40.65274 140.96567 41078 ft 489 kts 356°
2026-02-20 09:38 40.72085 140.96794 41077 ft 488 kts 356°
2026-02-20 09:39 40.77731 140.96985 41072 ft 488 kts 356°
2026-02-20 09:39 40.85627 140.97247 41098 ft 488 kts 356°
2026-02-20 09:40 40.92422 140.97472 41101 ft 487 kts 356°
2026-02-20 09:40 40.98063 140.97661 41096 ft 487 kts 356°
2026-02-20 09:41 41.04845 140.97888 41096 ft 487 kts 356°
2026-02-20 09:41 41.11624 140.98116 41098 ft 486 kts 356°
2026-02-20 09:42 41.18364 140.98343 41087 ft 486 kts 356°
2026-02-20 09:43 41.28530 140.98784 41079 ft 489 kts
2026-02-20 09:43 41.35184 141.00852 41075 ft 498 kts 13°
2026-02-20 09:43 41.38459 141.02343 40735 ft 492 kts 14°
2026-02-20 09:44 41.41672 141.03906 40226 ft 490 kts 15°
2026-02-20 09:44 41.44866 141.05507 39655 ft 489 kts 16°
2026-02-20 09:44 41.48010 141.07098 39085 ft 488 kts 16°
2026-02-20 09:44 41.51190 141.08702 38426 ft 487 kts 16°
2026-02-20 09:45 41.54366 141.10292 37689 ft 486 kts 16°
2026-02-20 09:45 41.57509 141.11857 37008 ft 485 kts 16°
2026-02-20 09:45 41.60669 141.13425 36346 ft 483 kts 17°
2026-02-20 09:45 41.63817 141.14986 35674 ft 481 kts 17°
2026-02-20 09:46 41.66957 141.16542 34986 ft 480 kts 17°
2026-02-20 09:46 41.70095 141.18103 34275 ft 479 kts 17°
2026-02-20 09:46 41.73173 141.19651 33481 ft 478 kts 18°
2026-02-20 09:46 41.76288 141.21228 32659 ft 472 kts 17°
2026-02-20 09:47 41.79318 141.22771 31848 ft 459 kts 17°
2026-02-20 09:47 41.82269 141.24275 31073 ft 446 kts 17°
2026-02-20 09:47 41.85138 141.25738 30322 ft 434 kts 17°
2026-02-20 09:47 41.87885 141.27137 29488 ft 425 kts 17°
2026-02-20 09:48 41.90645 141.28546 28622 ft 418 kts 17°
2026-02-20 09:48 41.93357 141.29928 27779 ft 414 kts 17°
2026-02-20 09:48 41.95958 141.31557 26970 ft 413 kts 27°
2026-02-20 09:48 41.98270 141.33869 26179 ft 413 kts 37°
2026-02-20 09:49 42.00396 141.36454 25411 ft 413 kts 39°
2026-02-20 09:49 42.02500 141.39113 24714 ft 415 kts 40°
2026-02-20 09:49 42.04567 141.41754 24105 ft 414 kts 40°
2026-02-20 09:49 42.06650 141.44425 23490 ft 412 kts 40°
2026-02-20 09:50 42.08722 141.47088 22779 ft 411 kts 40°
2026-02-20 09:50 42.10787 141.49744 22089 ft 409 kts 41°
2026-02-20 09:50 42.12908 141.52273 21418 ft 404 kts 33°
2026-02-20 09:50 42.15273 141.54280 20695 ft 401 kts 27°
2026-02-20 09:51 42.17679 141.56074 20107 ft 397 kts 26°
2026-02-20 09:51 42.20097 141.57851 19602 ft 392 kts 26°
2026-02-20 09:51 42.22475 141.59606 19118 ft 386 kts 26°
2026-02-20 09:51 42.24816 141.61341 18640 ft 381 kts 26°
2026-02-20 09:52 42.27129 141.63059 18130 ft 376 kts 26°
2026-02-20 09:52 42.29406 141.64756 17645 ft 371 kts 26°
2026-02-20 09:52 42.31617 141.66406 17188 ft 365 kts 26°
2026-02-20 09:52 42.33825 141.68055 16726 ft 359 kts 26°
2026-02-20 09:53 42.36000 141.69682 16283 ft 354 kts 26°
2026-02-20 09:53 42.38143 141.71286 15832 ft 349 kts 26°
2026-02-20 09:53 42.40257 141.72870 15391 ft 345 kts 26°
2026-02-20 09:53 42.42350 141.74439 14954 ft 341 kts 26°
2026-02-20 09:54 42.44391 141.75970 14521 ft 337 kts 26°
2026-02-20 09:54 42.46433 141.77503 14096 ft 334 kts 26°
2026-02-20 09:54 42.48458 141.79025 13633 ft 332 kts 26°
2026-02-20 09:54 42.50478 141.80545 13179 ft 330 kts 26°
2026-02-20 09:55 42.52489 141.82057 12747 ft 328 kts 26°
2026-02-20 09:55 42.54448 141.83533 12318 ft 325 kts 26°
2026-02-20 09:55 42.56419 141.85018 11894 ft 323 kts 25°
2026-02-20 09:55 42.58448 141.86253 11425 ft 316 kts 13°
2026-02-20 09:56 42.60599 141.86620 11004 ft 307 kts 355°
2026-02-20 09:56 42.62675 141.86483 10776 ft 295 kts 352°
2026-02-20 09:56 42.64680 141.86277 10641 ft 282 kts 351°
2026-02-20 09:56 42.66596 141.86077 10500 ft 270 kts 351°
2026-02-20 09:57 42.68446 141.85888 10323 ft 265 kts 351°
2026-02-20 09:57 42.70279 141.85701 10052 ft 263 kts 351°
2026-02-20 09:57 42.72128 141.85515 9772 ft 272 kts 351°
2026-02-20 09:57 42.74034 141.85323 9697 ft 280 kts 351°
2026-02-20 09:58 42.75963 141.85137 9291 ft 278 kts 351°
2026-02-20 09:58 42.77893 141.84952 8840 ft 277 kts 351°
2026-02-20 09:58 42.79822 141.84767 8514 ft 276 kts 351°
2026-02-20 09:58 42.81738 141.84561 8166 ft 274 kts 348°
2026-02-20 09:59 42.83572 141.84114 7878 ft 270 kts 342°
2026-02-20 09:59 42.85398 141.83549 7575 ft 267 kts 341°
2026-02-20 09:59 42.87205 141.82969 7275 ft 265 kts 341°
2026-02-20 09:59 42.89000 141.82393 6980 ft 264 kts 341°
2026-02-20 10:00 42.90792 141.81821 6701 ft 264 kts 340°
2026-02-20 10:00 42.92553 141.81260 6398 ft 262 kts 340°
2026-02-20 10:00 42.94328 141.80696 6090 ft 261 kts 341°
2026-02-20 10:00 42.96100 141.80132 5799 ft 261 kts 341°
2026-02-20 10:01 42.97867 141.79570 5514 ft 260 kts 341°
2026-02-20 10:01 42.99619 141.78955 5203 ft 258 kts 336°
2026-02-20 10:01 43.01182 141.77829 4909 ft 252 kts 321°
2026-02-20 10:01 43.02487 141.76260 4614 ft 248 kts 307°
2026-02-20 10:02 43.03291 141.74250 4345 ft 245 kts 285°
2026-02-20 10:02 43.03424 141.71947 4060 ft 243 kts 262°
2026-02-20 10:02 43.02847 141.69780 3778 ft 245 kts 239°
2026-02-20 10:02 43.01834 141.67909 3506 ft 245 kts 231°
2026-02-20 10:03 43.00684 141.66284 3391 ft 232 kts 219°
2026-02-20 10:03 42.99281 141.65387 3265 ft 222 kts 193°
2026-02-20 10:03 42.97761 141.65343 3135 ft 214 kts 177°
2026-02-20 10:03 42.96332 141.65573 3030 ft 203 kts 174°
2026-02-20 10:04 42.94978 141.65869 3008 ft 192 kts 170°
2026-02-20 10:04 42.93667 141.66193 3011 ft 190 kts 174°
2026-02-20 10:04 42.92378 141.66401 2977 ft 181 kts 175°
2026-02-20 10:04 42.91137 141.66625 2703 ft 178 kts 174°
2026-02-20 10:05 42.89946 141.66844 2466 ft 172 kts 173°
2026-02-20 10:05 42.88797 141.67049 2173 ft 159 kts 173°
2026-02-20 10:05 42.87740 141.67236 1960 ft 148 kts 172°
2026-02-20 10:05 42.86758 141.67410 1758 ft 136 kts 172°
2026-02-20 10:06 42.85853 141.67571 1546 ft 125 kts 172°
2026-02-20 10:06 42.85009 141.67721 1394 ft 123 kts 172°
2026-02-20 10:06 42.84160 141.67873 1246 ft 123 kts 172°
2026-02-20 10:06 42.83305 141.68037 1042 ft 124 kts 171°
2026-02-20 10:07 42.82453 141.68202 845 ft 125 kts 174°
2026-02-20 10:07 42.81598 141.68355 651 ft 125 kts 173°
2026-02-20 10:07 42.80732 141.68496 500 ft 126 kts 173°
2026-02-20 10:07 42.79855 141.68633 328 ft 126 kts 172°
2026-02-20 10:08 42.78983 141.68791 159 ft 127 kts 171°
2026-02-20 10:08 42.78116 141.68943 68 ft 118 kts 172°
2026-02-20 10:08 42.77542 141.69040 69 ft 42 kts 173°
2026-02-20 10:08 42.77332 141.69056 63 ft 29 kts 192°
2026-02-20 10:09 42.77196 141.69010 67 ft 4 kts 190°
2026-02-20 10:09 42.77157 141.69000 63 ft 8 kts 193°
2026-02-20 10:09 42.77106 141.68954 69 ft 10 kts 242°
2026-02-20 10:09 42.77136 141.68895 64 ft 10 kts 330°
2026-02-20 10:10 42.77214 141.68870 61 ft 14 kts 351°
2026-02-20 10:10 42.77321 141.68851 64 ft 17 kts 352°
2026-02-20 10:10 42.77451 141.68817 64 ft 20 kts 335°
2026-02-20 10:10 42.77542 141.68669 67 ft 22 kts 313°
2026-02-20 10:11 42.77688 141.68606 60 ft 24 kts 351°
2026-02-20 10:11 42.77862 141.68573 61 ft 27 kts 352°
2026-02-20 10:11 42.78057 141.68538 68 ft 29 kts 353°
2026-02-20 10:11 42.78254 141.68505 61 ft 28 kts 353°
2026-02-20 10:12 42.78439 141.68472 66 ft 26 kts 352°
2026-02-20 10:12 42.78610 141.68442 65 ft 24 kts 352°
2026-02-20 10:12 42.78769 141.68416 60 ft 22 kts 354°
2026-02-20 10:12 42.78907 141.68362 69 ft 20 kts 335°
2026-02-20 10:13 42.78986 141.68263 68 ft 10 kts 278°
2026-02-20 10:13 42.78961 141.68195 64 ft 7 kts 226°
2026-02-20 10:13 42.78953 141.68184 64 ft 0 kts 225°
2026-02-20 10:26 42.78953 141.68185 74 ft 0 kts 225°
2026-02-20 10:27 42.78954 141.68185 74 ft 0 kts 225°